GAOFEN-13 01

Last updated on Thu Nov 21 2024 00:02:44 GMT+0000 (Coordinated Universal Time)

1 46610U 20071A 24325.56642187 -.00000361 00000+0 00000+0 0 9991 2 46610 0.0717 68.7699 0016621 130.8873 182.1387 1.00267492 15169
UTC large
Height (km)
Speed (km/s)
/
Latitude / Longitude
Inclination (degrees)
Orbital Period (minutes)
Azimuth
Elevation
Range (km)
Doppler Factor

Next 0 passes for location: London (51.5072 / 0.1276)

Sorry there are no passes over London.